Location: Del Amo
(33.8464°N, 118.2104°W)
Time: 23:08:21
(UTC+00:00)

Explorer 7 - All Passes

Search period start: 11 September 2024 00:00
Search period end: 21 September 2024 00:00
Orbit: 462 x 610 km, 50.3° (Epoch: 11 September)

Date Brightness Start Highest point End Pass type
(mag) Time Alt. Az. Time Alt. Az. Time Alt. Az.
11 Sep - 10:27:47 10° SW 10:31:33 69° SE 10:35:12 10° NE visible
11 Sep - 12:08:50 10° WNW 12:11:18 17° NNW 12:13:44 10° NNE visible
11 Sep - 17:10:23 10° NNW 17:13:38 29° NE 17:16:58 10° E daylight
11 Sep - 18:49:46 10° WNW 18:53:03 29° SW 18:56:27 10° SSE daylight
12 Sep - 10:17:42 10° SW 10:21:31 87° NW 10:25:12 10° NE visible
12 Sep - 11:59:20 10° WNW 12:01:24 14° NNW 12:03:27 10° N visible
12 Sep - 17:00:14 10° NNW 17:03:39 37° NE 17:07:10 10° ESE daylight
12 Sep - 18:40:02 10° W 18:42:58 22° SW 18:45:58 10° S daylight
13 Sep - 08:30:45 10° SSE 08:32:21 12° SE 08:33:55 10° ESE night (unlit)
13 Sep - 10:07:40 10° WSW 10:11:27 65° NW 10:15:07 10° NE visible
13 Sep - 11:49:55 10° NW 11:51:28 12° NNW 11:53:01 10° N visible
13 Sep - 15:12:52 10° N 15:13:28 10° NNE 15:14:04 10° NNE daylight
13 Sep - 16:50:04 10° NW 16:53:37 48° NE 16:57:15 10° ESE daylight
13 Sep - 18:30:25 10° W 18:32:49 16° SW 18:35:15 10° S daylight
14 Sep - 08:19:39 10° S 08:22:10 17° SE 08:24:38 10° E night (unlit)
14 Sep - 09:57:39 10° WSW 10:01:22 49° NW 10:04:58 10° NE visible
14 Sep - 11:40:43 10° NNW 11:41:31 11° NNW 11:42:19 10° N visible
14 Sep - 15:02:03 10° N 15:03:30 12° NNE 15:04:58 10° NE daylight
14 Sep - 16:39:54 10° NW 16:43:32 64° NE 16:47:15 10° ESE daylight
14 Sep - 18:21:08 10° WSW 18:22:36 12° SW 18:24:06 10° SSW daylight
15 Sep - 08:08:52 10° S 08:11:57 22° SE 08:14:56 10° ENE night (unlit)
15 Sep - 09:47:40 10° WSW 09:51:15 38° NW 09:54:44 10° NNE visible
15 Sep - 14:51:30 10° N 14:53:29 14° NNE 14:55:29 10° ENE daylight
15 Sep - 16:29:43 10° NW 16:33:22 86° NE 16:37:06 10° SE daylight
16 Sep - 07:58:15 10° SSW 08:01:42 29° SE 08:05:02 10° ENE night (unlit)
16 Sep - 09:37:41 10° W 09:41:07 30° NW 09:44:26 10° NNE night (unlit)
16 Sep - 14:41:01 10° NNW 14:43:25 16° NNE 14:45:49 10° ENE daylight
16 Sep - 16:19:33 10° NW 16:23:09 70° SW 16:26:51 10° SE daylight
17 Sep - 07:47:42 10° SSW 07:51:25 39° SE 07:54:59 10° ENE night (unlit)
17 Sep - 09:27:44 10° W 09:30:57 25° NNW 09:34:04 10° NNE night (unlit)
17 Sep - 14:30:33 10° NNW 14:33:17 20° NNE 14:36:01 10° ENE daylight
17 Sep - 16:09:22 10° WNW 16:12:54 50° SW 16:16:29 10° SSE daylight
18 Sep - 07:37:13 10° SSW 07:41:06 53° SE 07:44:50 10° ENE night (unlit)
18 Sep - 09:17:48 10° W 09:20:45 20° NNW 09:23:37 10° NNE night (unlit)
18 Sep - 14:20:05 10° NNW 14:23:05 24° NNE 14:26:05 10° E daylight
18 Sep - 15:59:12 10° WNW 16:02:34 36° SW 16:05:59 10° SSE daylight
19 Sep - 07:26:47 10° SW 07:30:46 73° SE 07:34:35 10° NE night (unlit)
19 Sep - 09:07:53 10° WNW 09:10:31 17° NNW 09:13:06 10° NNE night (unlit)
19 Sep - 14:09:36 10° NNW 14:12:49 29° NE 14:16:03 10° E daylight
19 Sep - 15:49:04 10° WNW 15:52:11 27° SW 15:55:20 10° S daylight
20 Sep - 07:16:22 10° SW 07:20:23 85° NW 07:24:14 10° NE night (unlit)
20 Sep - 08:58:00 10° WNW 09:00:16 15° NNW 09:02:30 10° N night (unlit)
20 Sep - 13:59:07 10° NNW 14:02:30 37° NE 14:05:54 10° ESE daylight
20 Sep - 15:39:00 10° W 15:41:45 20° SW 15:44:30 10° S daylight
